カタログに戻る

STARLINK-4105

運用中通信VLEO
NORAD 53168·PAYLOAD·🇺🇸 United States

打ち上げ Jul 17, 2022 から Cape Canaveral Space Force Station

Loading…

次のパス (今後24時間)

TLE

最新Source: CelesTrak SupGP

元期: Sep 15, 2026, 02:22 UTC

1 53168C 22083AN  26258.09909722 -.00014114  00000+0 -42841-3 0  2581
2 53168  53.1606  28.8611 0001128  89.9912 139.2636 15.33545636    14

AllMySatでSTARLINK-4105をリアルタイム追跡

Download on the App Store